TimeMDT,TemperatureF,Dew PointF,Humidity,Sea Level PressureIn,VisibilityMPH,Wind Direction,Wind SpeedMPH,Gust SpeedMPH,PrecipitationIn,Events,Conditions,WindDirDegrees,DateUTC
12:53 AM,52.0,28.9,41,30.00,10.0,SE,5.8,-,N/A,,Clear,130,2013-10-07 06:53:00
1:53 AM,54.0,28.9,38,29.96,10.0,ESE,12.7,-,N/A,,Clear,110,2013-10-07 07:53:00
2:53 AM,53.1,26.1,35,29.97,10.0,South,8.1,-,N/A,,Clear,170,2013-10-07 08:53:00
3:53 AM,50.0,32.0,50,29.95,10.0,SE,6.9,-,N/A,,Clear,130,2013-10-07 09:53:00
4:53 AM,53.1,28.9,40,29.94,10.0,SE,4.6,-,N/A,,Clear,130,2013-10-07 10:53:00
5:53 AM,50.0,30.0,46,29.96,10.0,SE,6.9,-,N/A,,Clear,130,2013-10-07 11:53:00
6:53 AM,46.9,30.9,54,29.97,10.0,SE,4.6,-,N/A,,Clear,140,2013-10-07 12:53:00
7:53 AM,44.1,32.0,63,29.99,10.0,SSE,6.9,-,N/A,,Clear,150,2013-10-07 13:53:00
8:53 AM,46.9,32.0,56,30.00,10.0,SE,9.2,-,N/A,,Clear,140,2013-10-07 14:53:00
9:53 AM,55.0,32.0,42,29.99,10.0,SE,5.8,-,N/A,,Clear,130,2013-10-07 15:53:00
10:53 AM,60.1,30.9,33,29.98,10.0,ESE,4.6,-,N/A,,Clear,120,2013-10-07 16:53:00
11:53 AM,64.0,30.9,29,29.96,10.0,SSE,3.5,-,N/A,,Clear,160,2013-10-07 17:53:00
12:53 PM,68.0,28.9,23,29.95,10.0,East,3.5,-,N/A,,Clear,80,2013-10-07 18:53:00
1:53 PM,70.0,28.9,22,29.91,10.0,NW,3.5,-,N/A,,Clear,320,2013-10-07 19:53:00
2:53 PM,71.1,28.9,21,29.88,10.0,North,8.1,-,N/A,,Clear,10,2013-10-07 20:53:00
3:53 PM,70.0,28.9,22,29.87,10.0,North,9.2,-,N/A,,Clear,360,2013-10-07 21:53:00
4:53 PM,70.0,27.0,20,29.85,10.0,North,8.1,-,N/A,,Clear,10,2013-10-07 22:53:00
5:53 PM,68.0,27.0,21,29.84,10.0,North,4.6,-,N/A,,Clear,360,2013-10-07 23:53:00
6:53 PM,66.0,28.9,25,29.85,8.0,NNW,13.8,-,N/A,,Clear,330,2013-10-08 00:53:00
7:53 PM,62.1,30.0,30,29.87,10.0,North,6.9,-,N/A,,Clear,360,2013-10-08 01:53:00
8:53 PM,61.0,28.9,30,29.87,10.0,Calm,Calm,-,N/A,,Clear,0,2013-10-08 02:53:00
9:53 PM,57.9,33.1,39,29.88,7.0,WNW,17.3,21.9,N/A,,Clear,300,2013-10-08 03:53:00
10:53 PM,54.0,36.0,51,29.90,6.0,WNW,11.5,-,N/A,,Haze,300,2013-10-08 04:53:00
11:53 PM,52.0,37.0,57,29.91,7.0,NW,13.8,-,N/A,,Clear,320,2013-10-08 05:53:00